Location: Igon
(43.1667°N, 0.2333°W)
Time: 02:12:12
(UTC+00:00)

SKYMED 3 - Pass Details

Date: 19 April 2021
Orbit: 621 x 624 km, 97.9° (Epoch: 18 May)

Event Time Altitude Azimuth Distance (km) Brightness Sun altitude
Rises 19:27:13 0° 355° (N) 2,913 8.4 -7.5°
Reaches altitude 10° 19:30:11 10° 333° (NNW) 2,000 8.0 -7.9°
Maximum altitude 19:32:42 15° 297° (WNW) 1,670 8.3 -8.4°
Drops below altitude 10° 19:35:13 10° 262° (W) 1,991 8.1 -8.8°
Sets 19:38:10 0° 239° (WSW) 2,892 8.5 -9.3°
